STARLINK-34481, 65104

Orbit data source: Space-Track

STARLINK-34481, 65104 is a payload satellite owned by SpaceX/Seattle (US) in LEO that was launched on Mon, 04 Aug 2025 UTC via an FALCON 9 launch vehicle from the Air Force Eastern Test Range (AFETR). Payload-class satellites include a variety of spacecraft equipped with specific instruments for various scientific and technological missions. These include communications satellites like Starlink; space stations such as the ISS; scientific satellites like the Hubble; Earth observation satellites from companies like Planet Labs, Umbra, and HawkEye 360; GPS; miniature CubeSats for education and research; and military/defense satellites.

Not visible in the next 10 days
Identifier
65104, 2025-167AC
Orbit
LEO
Country
Flag of USUS
Related business
Manufacturer
SpaceX/Seattle
Mission
Operational spacecraft
Bus & Motor
STARLINK V2MO, Unknown motor
Mass
575 kg wet, ~530 kg dry
Launch date (UTC)
2025-08-04 (1 month ago)
Launch vehicle
FALCON 9
Launch site
Air Force Eastern Test Range (AFETR)
Object type
Payload
Rocket body
Debris
Shape & HBR
Unknown
Radar Cross Section
Large (>1 m²)

Expand to show TLE details & history
Last TLE update: 10 hours ago

TLE from 10 hours ago
0 STARLINK-34481
1 65104U 25167AC  25243.36458191  .00208764  00000-0  13903-2 0  9995
2 65104  53.1577 194.0342 0001020  92.8458 267.2679 15.74261588  4299
Epoch: 2025-08-31T08:44Z
TLE epoch observation values (Epoch: 2025-08-31T08:44:59.877Z)
Latitude
0.00003°
Longitude
82.99916°
Altitude
347.683 km
Speed
7.702 km/s
True Right ascension
12h 56m 08s
True Declination
0° 00' 00"
Sunlit
Object was in daylight at epoch
Visualization orbit readout
Latitude
Unknown
Longitude
Unknown
Altitude
Unknown
Speed
Unknown
Apparent Right ascension
Unknown
Apparent Declination
Unknown
Sunlit
N/A
Visualization observer readout
Local Sidereal Time
10:05:34
Azimuth
Unknown
Elevation
Unknown
Doppler factor
Unknown
Orbital elements
Apogee altitude
347.681 km
Perigee altitude
346.309 km
Semi-major axis
6,725.132 km
Eccentricity
0.0001
Inclination
53.1577°
RAAN
194.0342°
Arg. of periapsis
92.8458°
True anomaly
267.25623°
Mean anomaly
267.2679°
Eccentric anomaly
267.26206°
Mean motion
3.93543 °/min
Orbital period
91.48 mins
BSTAR
0.0013903
Loading maneuver chart data...
Computing Atmospheric mass density...
Loading historical data...
Loading historical data...
Loading historical data...
Loading historical data...
Loading historical data...
Loading historical data...
Loading historical data...

Documentation

Showing up to 5 results
|